#timestamp,LO_Frequency,Hit,StdDev 
1515222015.4,286046994.3,P
1515222035.2,286046992.8,P
1515222055.0,286046989.0,P
1515222056.0,286046989.0,Y
1515222075.8,286046994.3,P
1515222095.6,286046994.5,P
1515222115.4,286046991.9,P
1515222135.3,286046990.9,Y
1515222155.1,286046996.2,P
1515222175.8,286046994.0,P
1515222195.7,286046992.1,P
1515222215.5,286046993.6,Y
1515222235.3,286046999.0,P
1515222255.2,286046998.8,N
1515222275.0,286047001.0,N
1515222275.9,286047001.0,N
1515222295.7,286047006.8,N
1515222315.6,286047014.9,Y
1515222335.4,286047022.3,P
1515222355.2,286047026.7,N
1515222375.1,286047029.5,N
1515222376.0,286047029.5,N
1515222395.8,286047029.3,N
1515222415.6,286047030.2,N
1515222435.5,286047030.1,N
1515222455.3,286047031.2,Y
1515222475.1,286047008.8,P
1515222495.9,286047011.0,N
1515222515.7,286047013.7,N
1515222535.5,286047015.1,N
1515222555.4,286047015.8,N
1515222575.2,286047016.8,Y
1515222595.0,286047002.0,P
1515222595.9,286047002.0,N
1515222615.8,286047003.2,N
1515222635.6,286047005.9,N
1515222655.4,286047006.8,N
1515222675.3,286047010.1,N
1515222695.1,286047014.0,Y
1515222715.8,286047012.4,P
1515222735.7,286047007.9,N
1515222755.5,286047012.8,P
1515222775.3,286047013.0,Y
1515222795.2,286047006.7,P
1515222815.9,286047006.8,P
1515222835.7,286047010.2,P
1515222855.6,286047010.7,Y
1515222875.4,286047003.4,P
1515222895.2,286047002.0,N
1515222915.1,286047003.8,N
1515222916.0,286047003.8,N
1515222935.8,286047002.3,N
1515222955.6,286047002.4,N
1515222975.5,286047004.8,N
1515222995.3,286047009.4,Y
1515223015.1,286047004.4,P
1515223035.9,286047002.9,P
1515223055.7,286047003.4,P
1515223075.5,286047002.4,Y
1515223095.4,286046997.2,P
1515223115.2,286047001.7,N
1515223135.0,286047003.1,N
1515223135.9,286047003.1,N
1515223155.8,286047001.9,N
1515223175.6,286046999.0,N
1515223195.4,286046999.0,N
1515223215.3,286046995.3,N
1515223235.1,286046998.7,N
1515223236.0,286046998.7,N
1515223255.8,286047001.4,N
1515223275.7,286047007.6,Y
1515223295.5,286047006.5,P
1515223315.3,286047006.1,N
1515223335.1,286047007.9,N
1515223355.9,286047006.2,N
1515223375.7,286047009.1,Y
1515223395.5,286047001.0,P
1515223415.4,286046999.6,N
1515223435.2,286046996.8,N
1515223455.0,286046994.5,N
1515223455.9,286046994.5,N
1515223475.8,286046991.9,N
1515223495.6,286046996.8,N
1515223515.4,286046999.6,N
1515223535.3,286046998.3,N
1515223555.1,286046996.0,N
1515223575.8,286046991.0,N
1515223595.7,286046991.9,N
1515223615.5,286046995.2,N
1515223635.3,286047002.7,N
1515223655.2,286046999.8,N
1515223675.9,286046999.7,N
1515223695.7,286047002.8,N
1515223715.5,286047003.8,N
1515223735.4,286047005.7,N
1515223755.2,286047008.0,N
1515223775.0,286047008.6,N
1515223775.9,286047008.6,N
1515223795.8,286047013.7,N
1515223815.6,286047011.9,N
1515223835.4,286047011.4,N
1515223855.3,286047009.6,N
1515223875.1,286047013.2,N
1515223876.0,286047013.2,N
1515223895.8,286047013.9,N
1515223915.7,286047009.3,N
1515223935.5,286047015.3,N
1515223955.3,286047011.4,N
1515223975.2,286047008.5,N
1515223995.9,286047009.2,N
1515224015.7,286047004.8,N
1515224035.6,286047003.9,N
1515224055.4,286047000.5,N
1515224075.2,286047000.0,N
1515224095.0,286047002.8,N
1515224095.9,286047002.8,N
1515224115.8,286046998.6,N
1515224135.6,286047000.2,N
1515224155.4,286047000.5,N
1515224175.3,286047001.4,N
1515224195.1,286047004.7,N
1515224215.8,286047008.5,N
1515224235.7,286047007.7,N
1515224255.5,286047009.5,N
1515224275.3,286047009.7,N
1515224295.2,286047009.5,N
1515224315.9,286047008.0,N
1515224335.7,286047005.2,N
1515224355.6,286047006.6,N
1515224375.4,286047008.2,N
1515224395.2,286047009.3,N
1515224415.1,286047012.2,N
1515224416.0,286047012.2,N
1515224435.8,286047009.7,N
1515224455.6,286047013.2,N
1515224475.5,286047012.5,N
1515224495.3,286047013.7,Y
1515224515.1,286047006.2,P
1515224535.9,286047009.5,P
1515224555.7,286047015.0,P
1515224575.5,286047012.8,Y
1515224595.4,286047000.0,P
1515224615.2,286047001.2,N
1515224635.0,286047002.0,N
1515224635.9,286047002.0,N
1515224655.8,286047002.0,N
1515224675.6,286047002.4,N
1515224695.4,286047004.2,N
1515224715.2,286046998.7,N
1515224735.1,286047000.7,N
1515224736.0,286047000.7,N
1515224755.8,286047000.3,N
1515224775.6,286046999.0,N
1515224795.5,286047000.2,N
1515224815.3,286047002.7,N
1515224835.1,286046995.3,N
1515224855.9,286046995.1,N
1515224875.7,286046997.1,N
1515224895.5,286046994.5,N
1515224915.4,286046990.3,N
1515224935.2,286046992.2,N
1515224955.0,286046993.0,N
1515224955.9,286046993.0,N
1515224975.8,286046994.0,N
1515224995.6,286046992.0,N
1515225015.4,286046991.7,N
1515225035.2,286046993.6,N
1515225055.1,286046994.4,N
1515225056.0,286046994.4,N
1515225075.8,286046990.6,N
1515225095.6,286046992.5,N
1515225115.5,286046992.4,N
1515225135.3,286046993.0,N
1515225155.1,286046994.2,N
1515225175.9,286046994.2,N
1515225195.7,286046993.3,N
1515225215.5,286046994.0,N
1515225235.4,286046988.5,Y
1515225255.2,286046995.2,P
1515225275.0,286046993.8,P
1515225275.9,286046993.8,P
1515225295.8,286046995.6,Y
1515225315.6,286047001.3,P
1515225335.4,286047001.8,N
1515225355.3,286047000.9,N
1515225375.1,286046996.7,N
1515225395.8,286046993.6,N
1515225415.7,286046993.0,N
1515225435.5,286046997.7,N
1515225455.3,286046993.2,N
1515225475.2,286046994.8,N
1515225495.9,286046992.4,N
1515225515.7,286046995.6,N
1515225535.6,286046995.7,N
1515225555.4,286046996.1,N
1515225575.2,286047000.1,N
1515225595.0,286047003.0,N
1515225596.0,286047003.0,N
